This is the latest recevied weather packets stored in our database for station/object F4FEB-14. If no packets are shown the sender has not sent any weather packets the latest 10 day(s).
| Time | Temp. | Humidity | Pressure | Rain* | Wind** | Luminosity | Snow |
|---|---|---|---|---|---|---|---|
| 1777692288 | 13.89° C | 100% | 1023.8 hPa | 0 mm | - | - | - |
| 1777691987 | 13.33° C | 100% | 1023.8 hPa | 0 mm | - | - | - |
| 1777691685 | 12.78° C | 100% | 1024 hPa | 0 mm | - | - | - |
| 1777691385 | 12.22° C | 100% | 1024 hPa | 0 mm | - | - | - |
| 1777691082 | 11.11° C | 100% | 1024 hPa | 0 mm | - | - | - |
| 1777690781 | 10.56° C | 100% | 1024 hPa | 0 mm | - | - | - |
| 1777690480 | 10.56° C | 100% | 1023.9 hPa | 0 mm | - | - | - |
| 1777689878 | 10° C | 100% | 1023.9 hPa | 0 mm | - | - | - |
| 1777689577 | 10° C | 100% | 1024 hPa | 0 mm | - | - | - |
| 1777689276 | 10° C | 100% | 1023.9 hPa | 0 mm | - | - | - |
| 1777688975 | 10° C | 100% | 1023.9 hPa | 0 mm | - | - | - |
| 1777688674 | 10° C | 100% | 1023.9 hPa | 0 mm | - | - | - |
| 1777688373 | 10° C | 100% | 1023.9 hPa | 0 mm | - | - | - |
| 1777688072 | 10° C | 100% | 1024 hPa | 0 mm | - | - | - |
| 1777687168 | 9.44° C | 100% | 1024 hPa | 0 mm | - | - | - |
| 1777686867 | 9.44° C | 100% | 1024 hPa | 0 mm | - | - | - |
| 1777686264 | 9.44° C | 100% | 1024.1 hPa | 0 mm | - | - | - |
| 1777685963 | 9.44° C | 100% | 1024.1 hPa | 0 mm | - | - | - |
| 1777685661 | 9.44° C | 100% | 1024.1 hPa | 0 mm | - | - | - |
| 1777685360 | 10° C | 100% | 1024.1 hPa | 0 mm | - | - | - |
| 1777685059 | 10° C | 100% | 1024.1 hPa | 0 mm | - | - | - |
| 1777684758 | 10° C | 100% | 1024.1 hPa | 0 mm | - | - | - |
| 1777684457 | 10° C | 100% | 1024.1 hPa | 0 mm | - | - | - |
| 1777684156 | 10° C | 100% | 1024 hPa | 0 mm | - | - | - |
| 1777683554 | 10° C | 100% | 1024.2 hPa | 0 mm | - | - | - |
* Rain latest hour (hover to see other rain measurements)
** Current wind speed in m/s (hover to see current wind gust speed)